Radiation Dose measured at exhaust stack monitor of Fukushima Daiichi Nuclear Power Station
Date,Time,Unit 5 6 shared exhaust cylinders,Wind Direction,Wind Velocity(m/s)
2021/07/26,00:00,4.0,northwest,3.7
2021/07/26,00:10,3.8,north-northwest,4.1
2021/07/26,00:20,3.9,north-northwest,4.7
2021/07/26,00:30,3.8,north-northwest,4.6
2021/07/26,00:40,3.8,north,3.9
2021/07/26,00:50,3.9,north-northwest,3.3
2021/07/26,01:00,4.0,north-northwest,4.2
2021/07/26,01:10,3.9,north-northwest,4.8
2021/07/26,01:20,3.8,north-northwest,4.6
2021/07/26,01:30,3.9,north-northwest,5.1
2021/07/26,01:40,3.8,north-northwest,4.9
2021/07/26,01:50,3.9,north,5.0
2021/07/26,02:00,3.8,north,4.8
2021/07/26,02:10,3.9,north-northeast,5.1
2021/07/26,02:20,3.8,north-northeast,5.0
2021/07/26,02:30,3.7,north-northeast,3.9
2021/07/26,02:40,3.7,north-northeast,3.8
2021/07/26,02:50,3.8,north-northeast,3.6
2021/07/26,03:00,4.0,north,3.4
2021/07/26,03:10,3.8,north,3.3
2021/07/26,03:20,3.7,north-northeast,2.9
2021/07/26,03:30,3.9,north,3.2
2021/07/26,03:40,3.9,north,3.2
2021/07/26,03:50,4.0,north,2.9
2021/07/26,04:00,3.9,north,3.6
2021/07/26,04:10,3.8,north,3.6
2021/07/26,04:20,3.9,north,3.6
2021/07/26,04:30,3.9,north,3.1
2021/07/26,04:40,3.9,north-northwest,3.1
2021/07/26,04:50,3.7,north-northwest,3.8
2021/07/26,05:00,3.6,north,4.7
2021/07/26,05:10,3.9,north,4.2
2021/07/26,05:20,3.8,north,4.0
2021/07/26,05:30,3.9,north,3.5
2021/07/26,05:40,3.8,north,3.8
2021/07/26,05:50,3.9,north-northeast,5.6
2021/07/26,06:00,3.9,north,5.1
2021/07/26,06:10,4.0,north-northeast,4.4
2021/07/26,06:20,3.9,north-northeast,5.0
2021/07/26,06:30,3.8,north-northeast,4.3
2021/07/26,06:40,3.8,north-northeast,4.6
2021/07/26,06:50,3.7,north-northeast,5.4
2021/07/26,07:00,3.9,north-northeast,4.1
2021/07/26,07:10,3.5,north-northeast,4.9
2021/07/26,07:20,3.8,north-northeast,5.3
2021/07/26,07:30,3.9,north-northeast,5.8
2021/07/26,07:40,3.8,north-northeast,5.4
2021/07/26,07:50,3.9,north-northeast,5.6
2021/07/26,08:00,3.9,north-northeast,5.7
2021/07/26,08:10,3.9,north-northeast,7.2
2021/07/26,08:20,4.0,north,6.9
2021/07/26,08:30,3.8,north,6.9
2021/07/26,08:40,3.9,north,7.5
2021/07/26,08:50,3.9,north-northeast,6.4
2021/07/26,09:00,3.9,north-northeast,7.5
2021/07/26,09:10,3.9,north,6.8
2021/07/26,09:20,3.8,north,7.7
2021/07/26,09:30,3.8,north,8.4
2021/07/26,09:40,3.8,north,8.5
2021/07/26,09:50,3.8,north-northeast,7.9
2021/07/26,10:00,3.9,north-northeast,9.6
2021/07/26,10:10,3.7,north,8.8
2021/07/26,10:20,3.8,north-northeast,8.3
2021/07/26,10:30,3.7,north-northeast,8.9
2021/07/26,10:40,4.0,north,7.4
2021/07/26,10:50,3.8,north-northeast,9.3
2021/07/26,11:00,4.0,north-northeast,9.2
2021/07/26,11:10,3.7,north,8.8
2021/07/26,11:20,3.8,north-northeast,7.0
2021/07/26,11:30,3.9,north-northeast,9.0
2021/07/26,11:40,3.9,north-northeast,8.4
2021/07/26,11:50,3.7,north-northeast,8.3
2021/07/26,12:00,3.8,north-northeast,7.1
2021/07/26,12:10,4.0,north,7.8
2021/07/26,12:20,4.0,north,6.7
2021/07/26,12:30,3.8,north,8.3
2021/07/26,12:40,3.8,north-northeast,8.7
2021/07/26,12:50,3.8,north-northeast,8.6
2021/07/26,13:00,3.9,north,8.3
2021/07/26,13:10,3.8,north-northeast,8.8
2021/07/26,13:20,3.8,north,8.3
2021/07/26,13:30,3.9,north,9.6
2021/07/26,13:40,4.0,north,10.5
2021/07/26,13:50,3.8,north,9.5
2021/07/26,14:00,3.8,north-northeast,10.6
2021/07/26,14:10,3.7,north,10.2
2021/07/26,14:20,3.8,north,10.5
2021/07/26,14:30,3.9,north,10.3
2021/07/26,14:40,3.8,north,10.6
2021/07/26,14:50,3.8,north,10.2
2021/07/26,15:00,4.0,north-northeast,9.2
2021/07/26,15:10,3.9,north,8.5
2021/07/26,15:20,3.6,north,10.9
2021/07/26,15:30,3.9,north,11.3
2021/07/26,15:40,3.7,north-northeast,10.5
2021/07/26,15:50,3.7,north,10.6
2021/07/26,16:00,3.8,north,8.4
2021/07/26,16:10,3.9,north,7.9
2021/07/26,16:20,3.9,north,8.4
2021/07/26,16:30,3.8,north,9.0
2021/07/26,16:40,3.8,north,9.1
2021/07/26,16:50,3.9,north,9.5
2021/07/26,17:00,3.9,north,9.5
2021/07/26,17:10,4.1,north,10.2
2021/07/26,17:20,3.9,north-northeast,9.9
2021/07/26,17:30,3.7,north,9.8
2021/07/26,17:40,4.0,north,8.3
2021/07/26,17:50,3.9,north,9.8
2021/07/26,18:00,3.8,north,10.7
2021/07/26,18:10,3.8,north,11.3
2021/07/26,18:20,3.9,north,11.8
2021/07/26,18:30,3.8,north,10.3
2021/07/26,18:40,3.9,north,9.4
2021/07/26,18:50,4.0,north,10.5
2021/07/26,19:00,3.8,north,9.3
2021/07/26,19:10,4.0,north,8.7
2021/07/26,19:20,3.8,north,10.2
2021/07/26,19:30,3.9,north,8.0
2021/07/26,19:40,3.9,north,8.2
2021/07/26,19:50,4.0,north,7.8
2021/07/26,20:00,3.9,north-northeast,10.9
2021/07/26,20:10,3.9,north,13.0
2021/07/26,20:20,4.0,north,10.9
2021/07/26,20:30,3.7,north,12.1
2021/07/26,20:40,3.8,north,11.9
2021/07/26,20:50,3.8,north-northwest,11.0
2021/07/26,21:00,3.7,north-northwest,10.7
2021/07/26,21:10,4.0,north-northwest,9.4
2021/07/26,21:20,4.0,north-northwest,10.9
2021/07/26,21:30,3.9,north-northwest,7.5
2021/07/26,21:40,3.8,north-northwest,8.1
2021/07/26,21:50,3.9,north-northwest,8.7
2021/07/26,22:00,4.0,north-northwest,9.4
2021/07/26,22:10,3.8,north-northwest,8.1
2021/07/26,22:20,3.9,north-northwest,8.8
2021/07/26,22:30,3.9,north-northwest,8.6
2021/07/26,22:40,3.9,north-northwest,7.6
2021/07/26,22:50,3.8,north-northwest,7.0
2021/07/26,23:00,3.8,north-northwest,8.6
2021/07/26,23:10,4.0,north-northwest,9.3
2021/07/26,23:20,3.6,north-northwest,9.5
2021/07/26,23:30,3.8,north-northwest,8.6
2021/07/26,23:40,3.7,north-northwest,9.4
2021/07/26,23:50,3.7,north-northwest,9.1
